VE3GIF Weather Reports


Display with metric or nautical units.
time (UTC)temp
F
wind
direction
speed
MPH
gust
MPH
rain 1hr
in
rain 24hr
in
rain mn
in
humidity
%
barometer
mb
20260506014220 46 138 1.0 0.0 0.00 0.00 0.00 84 1008.3
20260506013219 46 149 1.0 0.0 0.00 0.00 0.00 83 1008.1
20260506012719 46 144 0.0 0.0 0.00 0.00 0.00 82 1008.1
20260506012219 46 140 2.0 0.0 0.00 0.00 0.00 82 1007.9
20260506011218 46 134 2.0 0.0 0.00 0.00 0.00 81 1008.1
20260506010718 46 135 2.0 0.0 0.00 0.00 0.00 81 1008.0
20260506005717 47 148 4.0 0.0 0.00 0.00 0.00 79 1008.0
20260506005217 47 153 3.0 0.0 0.00 0.00 0.00 78 1007.9
20260506004716 47 184 1.0 0.0 0.00 0.00 0.00 77 1007.7
20260506003716 49 140 3.0 0.0 0.00 0.00 0.00 74 1007.7
20260506003216 50 152 1.0 0.0 0.00 0.00 0.00 73 1007.5
20260506002715 50 155 3.0 0.0 0.00 0.00 0.00 72 1007.5
20260506002215 51 159 2.0 0.0 0.00 0.00 0.00 71 1007.3
20260506001214 51 38 1.0 0.0 0.00 0.00 0.00 71 1007.1
20260506000214 51 34 2.0 0.0 0.00 0.00 0.00 70 1007.1
20260505235213 51 322 2.0 0.0 0.00 0.00 0.00 70 1006.9
20260505233212 51 360 1.0 0.0 0.00 0.00 0.00 72 1006.7
20260505232712 52 341 2.0 0.0 0.00 0.00 0.00 72 1006.5
20260505232212 52 297 3.0 0.0 0.00 0.00 0.00 72 1006.4
20260505230711 52 314 3.0 0.0 0.00 0.00 0.00 69 1006.6
20260505230211 52 313 2.0 0.0 0.00 0.00 0.00 68 1006.7
20260505225710 52 340 2.0 0.0 0.00 0.00 0.00 68 1006.8
20260505225210 52 294 2.0 0.0 0.00 0.00 0.00 68 1006.8
20260505224710 52 312 3.0 0.0 0.00 0.00 0.00 69 1006.8
20260505224209 52 304 3.0 0.0 0.00 0.00 0.00 69 1006.7
20260505223709 52 298 3.0 0.0 0.00 0.00 0.00 69 1006.8
20260505223209 52 296 2.0 0.0 0.00 0.00 0.00 70 1006.8
20260505222709 52 304 3.0 0.0 0.00 0.00 0.00 71 1006.9
20260505222208 52 292 2.0 0.0 0.00 0.00 0.00 73 1006.8
20260505221708 52 189 5.0 0.0 0.00 0.00 0.00 73 1006.7
20260505221208 52 306 2.0 0.0 0.00 0.00 0.00 74 1006.5
20260505220707 51 261 3.0 0.0 0.00 0.00 0.00 76 1006.6
20260505220207 51 299 4.0 0.0 0.00 0.00 0.00 77 1006.5
20260505215707 51 290 4.0 0.0 0.00 0.00 0.00 79 1006.4
20260505215207 51 284 4.0 0.0 0.00 0.00 0.00 80 1006.4
20260505214706 51 337 2.0 0.0 0.00 0.00 0.00 81 1006.3
20260505214206 51 294 4.0 0.0 0.00 0.00 0.00 81 1006.4
20260505213205 51 301 2.0 0.0 0.00 0.00 0.00 82 1006.4
20260505212705 51 299 2.0 0.0 0.00 0.00 0.00 82 1006.4
20260505212205 50 284 3.0 0.0 0.00 0.00 0.00 81 1006.2
20260505211705 50 328 1.0 0.0 0.00 0.00 0.00 81 1006.3
20260505211204 50 284 1.0 0.0 0.00 0.00 0.00 81 1006.2
20260505210704 50 281 2.0 0.0 0.00 0.00 0.00 81 1006.3
20260505210204 50 295 1.0 0.0 0.00 0.00 0.00 81 1006.3
20260505205203 50 5 2.0 0.0 0.00 0.00 0.00 80 1006.2
20260505204703 51 329 3.0 0.0 0.00 0.00 0.00 79 1006.3
20260505204203 51 341 3.0 0.0 0.00 0.00 0.00 79 1006.3
20260505202702 51 302 5.0 0.0 0.00 0.00 0.00 76 1005.9
20260505202202 51 336 4.0 0.0 0.00 0.00 0.00 75 1005.8
20260505201701 51 355 2.0 0.0 0.00 0.00 0.00 75 1005.8
20260505201201 52 350 2.0 0.0 0.00 0.00 0.00 74 1006.0
20260505200701 52 325 4.0 0.0 0.00 0.00 0.00 73 1005.9
20260505200200 53 332 2.0 0.0 0.00 0.00 0.00 70 1006.1
20260505195700 54 281 1.0 0.0 0.00 0.00 0.00 67 1005.9
20260505195200 55 346 4.0 0.0 0.00 0.00 0.00 63 1005.7
20260505194659 56 276 8.0 0.0 0.00 0.00 0.00 59 1005.4
20260505193659 59 339 2.0 0.0 0.00 0.00 0.00 56 1005.1
20260505193159 59 239 2.0 0.0 0.00 0.00 0.00 54 1005.0
20260505192158 60 278 6.0 0.0 0.00 0.00 0.00 52 1004.6
20260505191658 60 244 4.0 0.0 0.00 0.00 0.00 51 1004.5
20260505190657 61 337 3.0 0.0 0.00 0.00 0.00 54 1004.5
20260505190157 60 270 2.0 0.0 0.00 0.00 0.00 55 1004.3
20260505185657 60 275 3.0 0.0 0.00 0.00 0.00 55 1004.4
20260505185156 60 289 4.0 0.0 0.00 0.00 0.00 55 1004.3
20260505184656 60 263 6.0 0.0 0.00 0.00 0.00 55 1004.4
20260505184156 60 290 8.0 0.0 0.00 0.00 0.00 56 1004.3
20260505183656 61 313 6.0 0.0 0.00 0.00 0.00 55 1004.1
20260505183155 62 290 4.0 0.0 0.00 0.00 0.00 53 1004.1
20260505182155 62 198 8.0 0.0 0.00 0.00 0.00 52 1003.9
20260505180154 63 253 5.0 0.0 0.00 0.00 0.00 56 1003.6
20260505175653 63 246 8.0 0.0 0.00 0.00 0.00 56 1003.5
20260505174152 63 227 1.0 0.0 0.00 0.00 0.00 60 1003.2
20260505173152 62 282 6.0 0.0 0.00 0.00 0.00 63 1003.0
20260505172151 62 279 6.0 0.0 0.00 0.00 0.00 64 1002.8
20260505171151 62 291 4.0 0.0 0.00 0.00 0.00 65 1002.7
20260505170150 62 265 2.0 0.0 0.00 0.00 0.00 66 1002.7
20260505165650 61 276 4.0 0.0 0.00 0.00 0.00 66 1002.6
20260505165150 61 290 1.0 0.0 0.00 0.00 0.00 66 1002.5
20260505164149 61 280 2.0 0.0 0.00 0.00 0.00 67 1002.8
20260505163649 61 299 2.0 0.0 0.00 0.00 0.00 68 1002.9
20260505163148 60 259 3.0 0.0 0.00 0.00 0.00 68 1002.9
20260505162648 60 223 4.0 0.0 0.00 0.00 0.00 69 1002.9
20260505162148 60 304 4.0 0.0 0.00 0.00 0.00 69 1002.8
20260505161648 60 218 2.0 0.0 0.00 0.00 0.00 69 1002.8
20260505161147 60 248 8.0 0.0 0.00 0.00 0.00 70 1002.8
20260505160647 60 307 8.0 0.0 0.00 0.00 0.00 71 1002.7
20260505160147 60 257 5.0 0.0 0.00 0.00 0.00 70 1002.6
20260505153145 61 294 0.0 0.0 0.00 0.00 0.00 69 1002.4
20260505152645 61 272 4.0 0.0 0.00 0.00 0.00 69 1002.3
20260505152144 60 307 8.0 0.0 0.00 0.00 0.00 69 1002.1
20260505150644 60 266 3.0 0.0 0.00 0.00 0.00 67 1001.6
20260505150143 60 294 7.0 0.0 0.00 0.00 0.00 67 1001.5
20260505140640 64 190 5.0 0.0 0.00 0.00 0.00 71 1000.6
20260505140140 64 254 3.0 0.0 0.00 0.00 0.00 71 1000.5
20260505130136 61 201 2.0 0.0 0.00 0.00 0.00 72 999.5
20260505124636 62 138 4.0 0.0 0.00 0.00 0.00 72 999.4
20260505124135 62 185 3.0 0.0 0.00 0.00 0.00 72 999.3
20260505123635 62 199 3.0 0.0 0.00 0.00 0.00 73 998.8
20260505123135 62 219 4.0 0.0 0.00 0.00 0.00 73 998.8
20260505122634 61 237 2.0 0.0 0.00 0.00 0.00 73 999.0
20260505121633 61 236 4.0 0.0 0.00 0.00 0.00 74 999.0
20260505121133 61 198 3.0 0.0 0.00 0.00 0.00 74 999.2
20260505115632 60 199 3.0 0.0 0.00 0.00 0.00 75 999.1
20260505114131 60 213 9.0 0.0 0.00 0.00 0.00 75 999.0
20260505112130 60 206 4.0 0.0 0.00 0.00 0.00 75 999.1
20260505111630 60 192 1.0 0.0 0.00 0.00 0.00 76 999.0
20260505111130 60 243 3.0 0.0 0.00 0.00 0.00 76 998.8
20260505110629 60 198 2.0 0.0 0.00 0.00 0.00 76 998.5
20260505110129 60 254 2.0 0.0 0.00 0.00 0.00 76 998.4
20260505102127 59 200 4.0 0.0 0.00 0.00 0.00 75 998.0
20260505101626 59 154 3.0 0.0 0.00 0.00 0.00 75 998.1
20260505101126 59 192 7.0 0.0 0.00 0.00 0.00 75 998.0
20260505100626 60 148 3.0 0.0 0.00 0.00 0.00 75 997.8
20260505100126 60 188 5.0 0.0 0.00 0.00 0.00 75 997.8
20260505095625 60 165 5.0 0.0 0.00 0.00 0.00 75 997.9
20260505095125 60 180 4.0 0.0 0.00 0.00 0.00 75 997.9
20260505094625 60 230 3.0 0.0 0.00 0.00 0.00 75 997.9
20260505094124 60 173 3.0 0.0 0.00 0.00 0.00 75 997.9
20260505093624 60 199 8.0 0.0 0.00 0.00 0.00 75 997.9
20260505093124 60 182 6.0 0.0 0.00 0.00 0.00 74 997.9
20260505092624 60 195 3.0 0.0 0.00 0.00 0.00 74 997.9
20260505092123 60 204 3.0 0.0 0.00 0.00 0.00 74 997.8
20260505091623 60 200 8.0 0.0 0.00 0.00 0.00 74 997.7
20260505091123 60 192 5.0 0.0 0.00 0.00 0.00 74 997.8
20260505084121 61 184 3.0 0.0 0.00 0.00 0.00 73 997.8
20260505083621 61 223 9.0 0.0 0.00 0.00 0.00 73 997.8
20260505083120 61 202 4.0 0.0 0.00 0.00 0.00 73 997.8
20260505082620 61 244 4.0 0.0 0.00 0.00 0.00 73 997.9
20260505082120 62 159 4.0 0.0 0.00 0.00 0.00 73 997.9
20260505081620 62 225 3.0 0.0 0.00 0.00 0.00 72 998.1
20260505081119 62 223 4.0 0.0 0.00 0.00 0.00 72 998.2
20260505080619 62 261 12.0 0.0 0.00 0.00 0.00 72 998.2
20260505080119 62 198 3.0 0.0 0.00 0.00 0.00 72 998.2
20260505075619 62 206 4.0 0.0 0.00 0.00 0.00 73 998.2
20260505075118 62 154 2.0 0.0 0.00 0.00 0.00 73 998.3
20260505074618 61 203 5.0 0.0 0.00 0.00 0.00 73 998.3
20260505074118 61 192 5.0 0.0 0.00 0.00 0.00 73 998.3
20260505073617 61 188 5.0 0.0 0.00 0.00 0.00 74 998.3
20260505073117 61 223 7.0 0.0 0.00 0.00 0.00 74 998.1
20260505072617 60 204 2.0 0.0 0.00 0.00 0.00 73 998.0
20260505072117 60 213 5.0 0.0 0.00 0.00 0.00 74 998.0
20260505071116 60 185 5.0 0.0 0.00 0.00 0.00 74 998.0
20260505070616 60 186 3.0 0.0 0.00 0.00 0.00 74 998.1
20260505070115 60 174 5.0 0.0 0.00 0.00 0.00 73 998.1
20260505065615 59 178 3.0 0.0 0.00 0.00 0.00 73 998.2
20260505065115 59 180 3.0 0.0 0.00 0.00 0.00 73 998.3
20260505064114 59 195 5.0 0.0 0.00 0.00 0.00 73 998.4
20260505063614 59 169 2.0 0.0 0.00 0.00 0.00 73 998.4
20260505063114 60 161 2.0 0.0 0.00 0.00 0.00 73 998.4
20260505062613 60 202 2.0 0.0 0.00 0.00 0.00 73 998.4
20260505062113 60 175 8.0 0.0 0.00 0.00 0.00 73 998.5
20260505060612 60 180 4.0 0.0 0.00 0.00 0.00 73 998.8
20260505060112 60 181 6.0 0.0 0.00 0.00 0.00 73 998.8
20260505055612 59 188 5.0 0.0 0.00 0.00 0.00 73 998.8
20260505055111 59 194 4.0 0.0 0.00 0.00 0.00 73 998.9
20260505054611 59 181 6.0 0.0 0.00 0.00 0.00 73 998.8
20260505054111 60 182 6.0 0.0 0.00 0.00 0.00 73 998.8
20260505053611 60 150 5.0 0.0 0.00 0.00 0.00 73 998.7
20260505053110 60 188 6.0 0.0 0.00 0.00 0.00 73 998.7
20260505052610 60 211 4.0 0.0 0.00 0.00 0.00 73 998.6
20260505052110 60 192 2.0 0.0 0.00 0.00 0.00 73 998.8
20260505051610 60 186 5.0 0.0 0.00 0.00 0.00 73 998.8
20260505051109 60 191 5.0 0.0 0.00 0.00 0.00 73 999.0
20260505050609 60 194 2.0 0.0 0.00 0.00 0.00 73 999.1
20260505041606 61 199 3.0 0.0 0.00 0.00 0.00 70 998.8
20260505041106 61 188 3.0 0.0 0.00 0.00 0.00 70 998.9
20260505040605 61 155 6.0 0.0 0.00 0.00 0.00 70 998.9
20260505040105 61 187 6.0 0.0 0.00 0.00 0.00 69 999.1
20260505035605 61 194 4.0 0.0 0.00 0.00 0.00 69 999.2
20260505034104 61 159 5.0 0.0 0.00 0.00 0.00 65 999.2
20260505033604 62 152 3.0 0.0 0.00 0.00 0.00 64 999.3
20260505033104 62 203 3.0 0.0 0.00 0.00 0.00 63 999.3
20260505032603 62 176 7.0 0.0 0.00 0.00 0.00 62 999.3
20260505031603 63 205 4.0 0.0 0.00 0.00 0.00 59 999.5
20260505031102 63 165 9.0 0.0 0.00 0.00 0.00 59 999.7
20260505030602 64 180 4.0 0.0 0.00 0.00 0.00 58 999.5
20260505025602 64 177 7.0 0.0 0.00 0.00 0.00 56 999.6
20260505025101 64 196 2.0 0.0 0.00 0.00 0.00 55 999.7
20260505024601 64 188 4.0 0.0 0.00 0.00 0.00 54 999.6
20260505024101 64 191 7.0 0.0 0.00 0.00 0.00 53 999.7
20260505023600 64 194 4.0 0.0 0.00 0.00 0.00 52 999.8
20260505023100 64 203 2.0 0.0 0.00 0.00 0.00 51 999.9
20260505022600 64 159 4.0 0.0 0.00 0.00 0.00 51 999.9
20260505022059 64 148 2.0 0.0 0.00 0.00 0.00 51 999.9
20260505021559 64 157 3.0 0.0 0.00 0.00 0.00 50 999.9
20260505021059 64 184 3.0 0.0 0.00 0.00 0.00 49 999.9
20260505020559 65 159 5.0 0.0 0.00 0.00 0.00 48 999.8
20260505020058 65 162 2.0 0.0 0.00 0.00 0.00 47 999.8
20260505015558 65 163 4.0 0.0 0.00 0.00 0.00 47 999.8
20260505015058 65 154 2.0 0.0 0.00 0.00 0.00 46 999.7
20260505014557 66 150 4.0 0.0 0.00 0.00 0.00 45 999.6